Location: Lavington
(51.2833°N, 1.9833°W)
Time: 01:58:46
(UTC+00:00)

NOSS 2-2 (C) - Pass Details

Date: 01 June 2020
Orbit: 482 x 1726 km, 63.3° (Epoch: 24 June)

Event Time Altitude Azimuth Distance (km) Brightness Sun altitude
Rises 21:57:48 0° 219° (SW) 2,535 6.5 -11.3°
Reaches altitude 10° 21:59:50 10° 217° (SW) 1,669 5.6 -11.5°
Maximum altitude 22:03:25 77° 132° (SE) 539 3.1 -11.7°
Drops below altitude 10° 22:07:35 10° 47° (NE) 1,934 6.3 -12.0°
Sets 22:10:06 0° 46° (NE) 2,988 7.3 -12.2°
